Location: Unspecified
(29.9680°N, 0.0000°E)
Time: 23:45:35
(UTC+00:00)

Explorer 7 - Pass Details

Date: 03 July 2019
Orbit: 485 x 680 km, 50.3° (Epoch: 19 July)

Event Time Altitude Azimuth Distance (km) Brightness Sun altitude
Rises 09:38:30 0° 330° (NNW) 2,826 10.3 56.8°
Reaches altitude 10° 09:41:48 10° 356° (N) 1,969 9.7 57.5°
Maximum altitude 09:44:12 14° 29° (NNE) 1,747 9.8 58.0°
Drops below altitude 10° 09:46:38 10° 60° (ENE) 2,027 10.3 58.5°
Sets 09:50:07 0° 86° (E) 2,972 11.0 59.3°
